#timestamp,LO_Frequency,Hit,StdDev 
1592067615.1,286047004.6,P
1592067635.9,286047005.4,P
1592067655.7,286047004.8,N
1592067675.5,286047007.2,Y
1592067695.4,286047001.6,P
1592067715.2,286047002.7,N
1592067735.0,286047002.4,N
1592067736.0,286047002.4,N
1592067755.8,286047002.4,N
1592067775.6,286047004.3,Y
1592067795.5,286047002.3,P
1592067815.3,286047002.6,P
1592067835.1,286047001.9,P
1592067855.9,286047000.8,N
1592067875.7,286047001.5,N
1592067895.6,286047002.6,Y
1592067915.4,286047002.2,P
1592067935.2,286047000.0,N
1592067955.1,286047000.7,N
1592067956.0,286047000.7,N
1592067975.8,286047002.0,N
1592067995.7,286047000.0,N
1592068015.5,286047004.0,Y
1592068035.3,286047002.0,P
1592068055.2,286046999.9,N
1592068075.0,286046999.0,N
1592068075.9,286046999.0,N
1592068095.8,286046997.7,N
1592068115.6,286046998.7,N
1592068165.5,286047000.8,E
1592068175.4,286046999.3,N
1592068195.2,286046996.9,P
1592068215.1,286046997.2,N
1592068216.0,286046997.2,N
1592068235.8,286046998.9,N
1592068255.6,286046997.3,N
1592068275.5,286046995.6,Y
1592068295.3,286046997.3,P
1592068315.2,286046995.2,P
1592068335.9,286046995.1,P
1592068355.7,286046995.9,Y
1592068375.6,286046998.9,P
1592068395.4,286046998.9,N
1592068415.3,286046996.9,N
1592068435.1,286046997.5,N
1592068436.0,286046997.5,N
1592068455.8,286046995.6,Y
1592068475.7,286046998.8,P
1592068495.5,286046998.9,N
1592068515.4,286047000.9,N
1592068535.2,286046999.6,N
1592068555.0,286046998.1,N
1592068555.9,286046998.1,N
1592068575.8,286046999.9,N
1592068595.6,286047002.2,N
1592068615.5,286046999.7,N
1592068635.3,286047002.6,N
1592068655.1,286047000.2,N
1592068675.9,286046998.5,N
1592068695.7,286047001.1,N
1592068715.6,286047001.1,N
1592068735.4,286046997.3,N
1592068755.2,286046995.2,Y
1592068775.1,286046996.3,P
1592068776.0,286046996.3,N
1592068795.8,286046995.2,P
1592068815.7,286046995.7,N
1592068835.5,286046995.4,N
1592068885.3,286046995.8,E
1592068895.3,286046996.9,N
1592068915.1,286047002.3,P
1592068935.8,286047002.0,N
1592068955.7,286047002.7,N
1592068975.5,286047001.2,N
1592068995.4,286046998.6,N
1592069015.2,286046997.1,N
1592069035.0,286046995.3,N
1592069035.9,286046995.3,N
1592069055.8,286046995.7,N
1592069075.8,286046995.5,N
1592069095.7,286046995.8,N
1592069115.5,286046995.7,N
1592069135.4,286046995.6,N
1592069155.2,286046996.4,N
1592069175.0,286046997.3,N
1592069175.9,286046997.3,N
1592069195.8,286046997.8,N
1592069215.6,286046998.0,N
1592069235.5,286046997.9,N
1592069255.3,286046996.9,N
1592069275.1,286046999.0,N
1592069295.9,286046998.4,N
1592069315.7,286047001.1,N
1592069335.6,286046999.9,N
1592069355.4,286047002.6,N
1592069375.2,286046999.9,N
1592069395.1,286047001.1,N
1592069396.0,286047001.1,N
1592069415.8,286047000.1,N
1592069435.6,286046998.2,N
1592069455.5,286046998.2,N
1592069475.3,286047001.1,N
1592069495.2,286047001.0,N
1592069515.9,286047000.8,N
1592069535.7,286046998.7,N
1592069555.6,286046999.5,N
1592069575.4,286046995.6,N
1592069595.3,286046996.1,N
1592069615.1,286046994.5,N
1592069616.0,286046994.5,N
1592069635.8,286046996.0,N
1592069655.7,286046993.7,N
1592069675.5,286046998.3,N
1592069695.4,286046993.8,N
1592069715.2,286046994.1,N
1592069735.0,286046994.6,N
1592069735.9,286046994.6,N
1592069755.8,286046991.7,Y
1592069775.6,286046995.6,P
1592069795.5,286046996.1,P
1592069815.3,286046996.3,P
1592069835.1,286046995.5,Y
1592069855.9,286046998.9,P
1592069875.7,286047000.4,N
1592069895.5,286047002.5,N
1592069915.4,286047002.1,N
1592069935.2,286047002.4,N
1592069955.1,286047001.1,N
1592069956.0,286047001.1,N
1592069975.8,286046998.1,N
1592069995.8,286046998.1,N
1592070015.6,286047002.0,N
1592070035.4,286047002.6,N
1592070055.3,286047002.3,N
1592070075.1,286047004.2,N
1592070095.8,286047001.6,N
1592070115.7,286047002.4,N
1592070135.5,286047000.8,N
1592070155.4,286047001.2,N
1592070175.2,286046998.7,N
1592070195.0,286047002.5,N
1592070195.9,286047002.5,N
1592070215.8,286047001.5,N
1592070235.6,286047001.5,N
1592070255.5,286047002.6,N
1592070275.3,286047000.6,N
1592070295.1,286046999.8,N
1592070315.9,286046998.7,N
1592070335.7,286046998.6,N
1592070355.5,286047000.8,N
1592070375.4,286046998.3,N
1592070395.2,286047000.3,N
1592070415.1,286047001.5,N
1592070416.0,286047001.5,N
1592070435.8,286047002.0,N
1592070455.6,286047001.3,N
1592070475.5,286047003.2,N
1592070495.3,286047004.3,N
1592070515.2,286047003.5,N
1592070535.9,286047001.6,N
1592070555.7,286047003.4,N
1592070575.6,286047003.4,N
1592070595.4,286047003.9,N
1592070615.2,286047002.3,N
1592070635.1,286046999.7,N
1592070636.0,286046999.7,N
1592070655.8,286047002.4,N
1592070675.7,286047004.1,N
1592070695.5,286047001.8,N
1592070715.3,286047001.7,N
1592070735.2,286046999.9,N
1592070755.0,286047000.1,N
1592070755.9,286047000.1,N
1592070775.8,286047002.5,N
1592070795.6,286047001.8,N
1592070815.4,286047001.8,N
1592070835.3,286047000.1,N
1592070855.1,286047000.6,N
1592070875.8,286047002.3,N
1592070895.7,286047000.6,N
1592070915.5,286047000.0,N
1592070935.4,286047001.9,N
1592070955.2,286047007.2,Y
1592070975.0,286047002.3,P
1592070975.9,286047002.3,P
1592070995.8,286047000.6,N
1592071015.6,286046998.5,N
1592071035.5,286046996.6,N
1592071055.3,286047000.0,N
1592071075.1,286046998.6,N
1592071095.9,286046998.9,N
1592071115.7,286046998.7,N
1592071135.6,286046999.0,N
1592071155.4,286046998.4,N
1592071175.2,286046999.2,N
1592071195.1,286046999.4,N
1592071196.0,286046999.4,N
